Time,TemperatureF,DewpointF,PressureIn,WindDirection,WindDirectionDegrees,WindSpeedMPH,WindSpeedGustMPH,Humidity,HourlyPrecipIn,Conditions,Clouds,dailyrainin,SoftwareType,DateUTC
2013-01-03 00:01:00,17.1,13.0,30.12,South,181,2.0,-999.0,83,-99.99,,,0.00,weatherlink.com 1.10,2013-01-03 06:01:00,
2013-01-03 00:16:00,17.1,13.0,30.12,South,176,0.0,-999.0,84,-99.99,,,0.00,weatherlink.com 1.10,2013-01-03 06:16:00,
2013-01-03 00:31:00,17.1,13.0,30.12,South,177,3.0,-999.0,84,-99.99,,,0.00,weatherlink.com 1.10,2013-01-03 06:31:00,
2013-01-03 00:46:00,17.1,13.0,30.12,South,178,2.0,-999.0,84,-99.99,,,0.00,weatherlink.com 1.10,2013-01-03 06:46:00,
2013-01-03 01:01:00,17.6,14.0,30.12,South,178,0.0,-999.0,85,-99.99,,,0.00,weatherlink.com 1.10,2013-01-03 07:01:00,
2013-01-03 01:16:00,18.5,15.0,30.12,South,178,0.0,-999.0,85,-99.99,,,0.00,weatherlink.com 1.10,2013-01-03 07:16:00,
2013-01-03 01:31:00,19.3,16.0,30.12,South,180,2.0,-999.0,85,-99.99,,,0.00,weatherlink.com 1.10,2013-01-03 07:31:00,
2013-01-03 01:46:00,20.1,16.0,30.12,South,183,0.0,-999.0,85,-99.99,,,0.00,weatherlink.com 1.10,2013-01-03 07:46:00,
2013-01-03 02:01:00,20.7,17.0,30.13,SW,230,1.0,-999.0,84,-99.99,,,0.00,weatherlink.com 1.10,2013-01-03 08:01:00,
2013-01-03 02:16:00,20.8,17.0,30.13,SW,236,1.0,-999.0,84,-99.99,,,0.00,weatherlink.com 1.10,2013-01-03 08:16:00,
2013-01-03 02:31:00,21.0,17.0,30.14,SW,236,1.0,-999.0,84,-99.99,,,0.00,weatherlink.com 1.10,2013-01-03 08:31:00,
2013-01-03 02:46:00,20.9,17.0,30.14,WSW,242,0.0,-999.0,84,-99.99,,,0.00,weatherlink.com 1.10,2013-01-03 08:46:00,
2013-01-03 03:01:00,20.7,17.0,30.14,WSW,242,1.0,-999.0,84,-99.99,,,0.00,weatherlink.com 1.10,2013-01-03 09:01:00,
2013-01-03 03:16:00,20.7,17.0,30.14,WSW,242,0.0,-999.0,85,-99.99,,,0.00,weatherlink.com 1.10,2013-01-03 09:16:00,
2013-01-03 03:31:00,20.8,17.0,30.14,WSW,242,0.0,-999.0,85,-99.99,,,0.00,weatherlink.com 1.10,2013-01-03 09:31:00,
2013-01-03 03:46:00,21.0,18.0,30.14,WSW,242,0.0,-999.0,86,-99.99,,,0.00,weatherlink.com 1.10,2013-01-03 09:46:00,
2013-01-03 04:01:00,21.2,18.0,30.14,WSW,242,0.0,-999.0,86,-99.99,,,0.00,weatherlink.com 1.10,2013-01-03 10:01:00,
2013-01-03 04:16:00,21.4,18.0,30.14,WSW,242,0.0,-999.0,87,-99.99,,,0.00,weatherlink.com 1.10,2013-01-03 10:16:00,
2013-01-03 04:31:00,21.7,18.0,30.14,WSW,242,0.0,-999.0,87,-99.99,,,0.00,weatherlink.com 1.10,2013-01-03 10:31:00,
2013-01-03 04:46:00,21.7,18.0,30.14,WSW,242,0.0,-999.0,87,-99.99,,,0.00,weatherlink.com 1.10,2013-01-03 10:46:00,
2013-01-03 05:01:00,21.3,18.0,30.14,WSW,238,1.0,-999.0,87,-99.99,,,0.00,weatherlink.com 1.10,2013-01-03 11:01:00,
2013-01-03 05:16:00,21.4,18.0,30.15,SSW,209,0.0,-999.0,88,-99.99,,,0.00,weatherlink.com 1.10,2013-01-03 11:16:00,
2013-01-03 05:31:00,21.9,19.0,30.15,SSW,209,0.0,-999.0,88,-99.99,,,0.00,weatherlink.com 1.10,2013-01-03 11:31:00,
2013-01-03 05:46:00,22.5,20.0,30.15,SSW,210,0.0,-999.0,89,-99.99,,,0.00,weatherlink.com 1.10,2013-01-03 11:46:00,
2013-01-03 06:01:00,23.0,20.0,30.15,SW,215,2.0,-999.0,89,-99.99,,,0.00,weatherlink.com 1.10,2013-01-03 12:01:00,
2013-01-03 06:16:00,23.6,21.0,30.15,SW,226,3.0,-999.0,89,-99.99,,,0.00,weatherlink.com 1.10,2013-01-03 12:16:00,
2013-01-03 06:31:00,23.5,21.0,30.15,WSW,237,2.0,-999.0,89,-99.99,,,0.00,weatherlink.com 1.10,2013-01-03 12:31:00,
2013-01-03 06:46:00,23.4,21.0,30.15,WSW,237,2.0,-999.0,89,-99.99,,,0.00,weatherlink.com 1.10,2013-01-03 12:46:00,
2013-01-03 07:01:00,23.6,21.0,30.15,WSW,238,1.0,-999.0,90,-99.99,,,0.00,weatherlink.com 1.10,2013-01-03 13:01:00,
2013-01-03 07:16:00,23.8,21.0,30.16,WSW,238,0.0,-999.0,90,-99.99,,,0.00,weatherlink.com 1.10,2013-01-03 13:16:00,
2013-01-03 07:31:00,24.0,22.0,30.16,WSW,238,0.0,-999.0,90,-99.99,,,0.00,weatherlink.com 1.10,2013-01-03 13:31:00,
2013-01-03 07:46:00,24.2,22.0,30.16,WSW,238,0.0,-999.0,91,-99.99,,,0.00,weatherlink.com 1.10,2013-01-03 13:46:00,
2013-01-03 08:01:00,24.6,22.0,30.17,WSW,238,2.0,-999.0,91,-99.99,,,0.00,weatherlink.com 1.10,2013-01-03 14:01:00,
2013-01-03 08:16:00,24.9,23.0,30.18,WSW,238,0.0,-999.0,91,-99.99,,,0.00,weatherlink.com 1.10,2013-01-03 14:16:00,
2013-01-03 08:31:00,25.2,23.0,30.18,WSW,238,0.0,-999.0,91,-99.99,,,0.00,weatherlink.com 1.10,2013-01-03 14:31:00,
2013-01-03 08:46:00,25.6,23.0,30.19,WSW,238,1.0,-999.0,91,-99.99,,,0.00,weatherlink.com 1.10,2013-01-03 14:46:00,
2013-01-03 09:01:00,26.0,24.0,30.19,WSW,238,0.0,-999.0,91,-99.99,,,0.00,weatherlink.com 1.10,2013-01-03 15:01:00,
2013-01-03 09:16:00,26.5,24.0,30.20,WSW,248,3.0,-999.0,91,-99.99,,,0.00,weatherlink.com 1.10,2013-01-03 15:16:00,
2013-01-03 09:31:00,27.0,25.0,30.20,WSW,245,1.0,-999.0,91,-99.99,,,0.00,weatherlink.com 1.10,2013-01-03 15:31:00,
2013-01-03 09:46:00,27.4,25.0,30.21,WSW,240,1.0,-999.0,90,-99.99,,,0.00,weatherlink.com 1.10,2013-01-03 15:46:00,
2013-01-03 10:01:00,27.8,25.0,30.22,WSW,240,0.0,-999.0,90,-99.99,,,0.00,weatherlink.com 1.10,2013-01-03 16:01:00,
2013-01-03 10:16:00,28.1,26.0,30.22,WSW,253,0.0,-999.0,90,-99.99,,,0.00,weatherlink.com 1.10,2013-01-03 16:16:00,
2013-01-03 10:31:00,28.4,26.0,30.22,WSW,246,0.0,-999.0,90,-99.99,,,0.00,weatherlink.com 1.10,2013-01-03 16:31:00,
2013-01-03 10:46:00,28.8,26.0,30.22,WSW,253,4.0,-999.0,89,-99.99,,,0.00,weatherlink.com 1.10,2013-01-03 16:46:00,
2013-01-03 11:01:00,29.2,26.0,30.22,WSW,246,2.0,-999.0,89,-99.99,,,0.00,weatherlink.com 1.10,2013-01-03 17:01:00,
2013-01-03 11:16:00,29.4,26.0,30.22,SW,216,3.0,-999.0,88,-99.99,,,0.00,weatherlink.com 1.10,2013-01-03 17:16:00,
2013-01-03 11:31:00,29.6,27.0,30.21,WSW,248,2.0,-999.0,88,-99.99,,,0.00,weatherlink.com 1.10,2013-01-03 17:31:00,
2013-01-03 11:46:00,29.6,27.0,30.21,WSW,252,3.0,-999.0,88,-99.99,,,0.00,weatherlink.com 1.10,2013-01-03 17:46:00,
2013-01-03 12:01:00,29.7,27.0,30.21,WSW,248,0.0,-999.0,88,-99.99,,,0.00,weatherlink.com 1.10,2013-01-03 18:01:00,
2013-01-03 12:16:00,30.1,27.0,30.21,WSW,246,0.0,-999.0,88,-99.99,,,0.00,weatherlink.com 1.10,2013-01-03 18:16:00,
2013-01-03 12:31:00,30.3,27.0,30.20,WSW,243,5.0,-999.0,88,-99.99,,,0.00,weatherlink.com 1.10,2013-01-03 18:31:00,
2013-01-03 12:46:00,30.7,27.0,30.20,WSW,239,5.0,-999.0,87,-99.99,,,0.00,weatherlink.com 1.10,2013-01-03 18:46:00,
2013-01-03 13:01:00,30.9,28.0,30.19,WSW,251,1.0,-999.0,87,-99.99,,,0.00,weatherlink.com 1.10,2013-01-03 19:01:00,
2013-01-03 13:16:00,31.2,28.0,30.19,WSW,252,3.0,-999.0,87,-99.99,,,0.00,weatherlink.com 1.10,2013-01-03 19:16:00,
2013-01-03 14:01:00,31.9,27.0,30.20,West,268,0.0,-999.0,83,-99.99,,,0.00,weatherlink.com 1.10,2013-01-03 20:01:00,
2013-01-03 14:16:00,32.0,27.0,30.21,WSW,252,0.0,-999.0,83,-99.99,,,0.00,weatherlink.com 1.10,2013-01-03 20:16:00,
2013-01-03 14:31:00,32.0,27.0,30.21,WNW,292,4.0,-999.0,81,-99.99,,,0.00,weatherlink.com 1.10,2013-01-03 20:31:00,
2013-01-03 14:46:00,31.8,27.0,30.22,WNW,288,2.0,-999.0,82,-99.99,,,0.00,weatherlink.com 1.10,2013-01-03 20:46:00,
2013-01-03 15:01:00,31.0,26.0,30.22,WNW,288,1.0,-999.0,81,-99.99,,,0.00,weatherlink.com 1.10,2013-01-03 21:01:00,
2013-01-03 15:16:00,30.8,26.0,30.22,WNW,292,4.0,-999.0,82,-99.99,,,0.00,weatherlink.com 1.10,2013-01-03 21:16:00,
2013-01-03 15:31:00,30.4,25.0,30.22,WSW,248,4.0,-999.0,79,-99.99,,,0.00,weatherlink.com 1.10,2013-01-03 21:31:00,
2013-01-03 15:46:00,29.9,24.0,30.23,West,276,4.0,-999.0,77,-99.99,,,0.00,weatherlink.com 1.10,2013-01-03 21:46:00,
2013-01-03 16:01:00,29.4,23.0,30.23,WNW,296,7.0,-999.0,76,-99.99,,,0.00,weatherlink.com 1.10,2013-01-03 22:01:00,
2013-01-03 16:16:00,29.0,22.0,30.24,WNW,292,1.0,-999.0,76,-99.99,,,0.00,weatherlink.com 1.10,2013-01-03 22:16:00,
2013-01-03 16:31:00,28.3,22.0,30.24,WNW,292,3.0,-999.0,76,-99.99,,,0.00,weatherlink.com 1.10,2013-01-03 22:31:00,
2013-01-03 16:46:00,27.2,21.0,30.24,WNW,284,0.0,-999.0,77,-99.99,,,0.00,weatherlink.com 1.10,2013-01-03 22:46:00,
2013-01-03 17:01:00,26.5,21.0,30.25,WSW,257,2.0,-999.0,78,-99.99,,,0.00,weatherlink.com 1.10,2013-01-03 23:01:00,
2013-01-03 17:16:00,26.1,20.0,30.25,WSW,258,2.0,-999.0,79,-99.99,,,0.00,weatherlink.com 1.10,2013-01-03 23:16:00,
2013-01-03 17:31:00,25.4,20.0,30.26,West,269,1.0,-999.0,79,-99.99,,,0.00,weatherlink.com 1.10,2013-01-03 23:31:00,
2013-01-03 17:46:00,24.7,19.0,30.26,West,271,1.0,-999.0,79,-99.99,,,0.00,weatherlink.com 1.10,2013-01-03 23:46:00,
2013-01-03 18:01:00,24.2,19.0,30.27,West,265,0.0,-999.0,80,-99.99,,,0.00,weatherlink.com 1.10,2013-01-04 00:01:00,
2013-01-03 18:16:00,23.4,18.0,30.27,West,265,0.0,-999.0,81,-99.99,,,0.00,weatherlink.com 1.10,2013-01-04 00:16:00,
2013-01-03 18:31:00,22.8,18.0,30.27,West,265,0.0,-999.0,82,-99.99,,,0.00,weatherlink.com 1.10,2013-01-04 00:31:00,
2013-01-03 18:46:00,21.9,17.0,30.28,West,265,0.0,-999.0,82,-99.99,,,0.00,weatherlink.com 1.10,2013-01-04 00:46:00,
2013-01-03 19:01:00,20.9,17.0,30.28,West,265,0.0,-999.0,83,-99.99,,,0.00,weatherlink.com 1.10,2013-01-04 01:01:00,
2013-01-03 19:16:00,20.6,17.0,30.28,West,265,0.0,-999.0,84,-99.99,,,0.00,weatherlink.com 1.10,2013-01-04 01:16:00,
2013-01-03 19:31:00,20.3,16.0,30.29,West,265,0.0,-999.0,84,-99.99,,,0.00,weatherlink.com 1.10,2013-01-04 01:31:00,
2013-01-03 19:46:00,19.8,16.0,30.29,West,265,0.0,-999.0,84,-99.99,,,0.00,weatherlink.com 1.10,2013-01-04 01:46:00,
2013-01-03 20:01:00,19.5,15.0,30.29,West,265,0.0,-999.0,84,-99.99,,,0.00,weatherlink.com 1.10,2013-01-04 02:01:00,
2013-01-03 20:16:00,19.4,15.0,30.29,West,265,0.0,-999.0,84,-99.99,,,0.00,weatherlink.com 1.10,2013-01-04 02:16:00,
2013-01-03 20:31:00,18.8,15.0,30.29,West,265,0.0,-999.0,84,-99.99,,,0.00,weatherlink.com 1.10,2013-01-04 02:31:00,
2013-01-03 20:46:00,18.2,14.0,30.29,West,265,0.0,-999.0,84,-99.99,,,0.00,weatherlink.com 1.10,2013-01-04 02:46:00,
2013-01-03 21:01:00,17.6,14.0,30.29,West,265,0.0,-999.0,85,-99.99,,,0.00,weatherlink.com 1.10,2013-01-04 03:01:00,
2013-01-03 21:16:00,17.1,14.0,30.29,West,265,0.0,-999.0,86,-99.99,,,0.00,weatherlink.com 1.10,2013-01-04 03:16:00,
2013-01-03 21:31:00,16.7,13.0,30.30,West,265,0.0,-999.0,86,-99.99,,,0.00,weatherlink.com 1.10,2013-01-04 03:31:00,
2013-01-03 21:46:00,16.0,13.0,30.30,West,265,0.0,-999.0,86,-99.99,,,0.00,weatherlink.com 1.10,2013-01-04 03:46:00,
2013-01-03 22:01:00,15.7,12.0,30.30,West,265,0.0,-999.0,86,-99.99,,,0.00,weatherlink.com 1.10,2013-01-04 04:01:00,
2013-01-03 22:16:00,16.1,13.0,30.30,West,265,1.0,-999.0,87,-99.99,,,0.00,weatherlink.com 1.10,2013-01-04 04:16:00,
2013-01-03 22:31:00,17.0,14.0,30.30,West,265,0.0,-999.0,86,-99.99,,,0.00,weatherlink.com 1.10,2013-01-04 04:31:00,
2013-01-03 22:46:00,15.8,12.0,30.30,West,265,0.0,-999.0,84,-99.99,,,0.00,weatherlink.com 1.10,2013-01-04 04:46:00,
2013-01-03 23:16:00,14.9,12.0,30.28,West,265,0.0,-999.0,86,-99.99,,,0.00,weatherlink.com 1.10,2013-01-04 05:16:00,
2013-01-03 23:31:00,15.1,12.0,30.27,West,265,0.0,-999.0,87,-99.99,,,0.00,weatherlink.com 1.10,2013-01-04 05:31:00,
2013-01-03 23:46:00,14.4,11.0,30.28,West,265,0.0,-999.0,86,-99.99,,,0.00,weatherlink.com 1.10,2013-01-04 05:46:00,